Weather History for KCMA - April, 2013

Change the Weather History Date:

Saturday, April 20, 2013

  Actual Average Record
Temperature  
Mean Temperature 66 °F 59 °F  
Max Temperature 81 °F 69 °F 96 °F (2009)
Min Temperature 51 °F 48 °F 39 °F (1967)
Degree Days  
Heating Degree Days 0 7  
Month to date heating degree days 66 145  
Since 1 July heating degree days 1408 1758  
Cooling Degree Days 1 0  
Month to date cooling degree days 2 0  
Year to date cooling degree days 26 13  
Growing Degree Days 16 (Base 50)    
Moisture  
Dew Point 47 °F    
Average Humidity 54    
Maximum Humidity 77    
Minimum Humidity 30    
Precipitation  
Precipitation 0.00 in 0.03 in 1.14 in (1983)
Month to date precipitation 0.00 0.46  
Year to date precipitation 2.07 10.29  
Since 1 July precipitation 4.78  
Sea Level Pressure  
Sea Level Pressure 29.96 in    
Wind  
Wind Speed 4 mph (WSW)    
Max Wind Speed 15 mph    
Max Gust Speed 18 mph    
Visibility 10 miles    
Events      
T = Trace of Precipitation, MM = Missing Value Source: NWS Daily Summary

Daily Weather History Graph

Daily Weather History Graph

Search for Another Location

Airport or City:

Trip Planner

Search our weather history database for the weather conditions in past years. The results will help you decide how hot, cold, wet, or windy it might be!

Date:

Astronomy

Apr. 20, 2013 Rise Set
Actual Time 6:18 AM PDT 7:32 PM PDT
Civil Twilight 5:52 AM PDT 7:58 PM PDT
Nautical Twilight 5:21 AM PDT 8:29 PM PDT
Astronomical Twilight 4:49 AM PDT 9:01 PM PDT
Moon 2:34 PM PDT (4/20) 2:56 AM PDT (4/20)
Length of Visible Light 14h 05m
Length of Day
13h 13m
Waxing Gibbous, 72% of the Moon is Illuminated
Apr 20
Waxing Gibbous
Apr 25
Full
May 2
Last Quarter
May 9
New
May 17
First Quarter

Hourly Weather History & Observations

Time (PDT) Temp. Dew Point Humidity Pressure Visibility Wind Dir Wind Speed Gust Speed Precip Events Conditions
12:55 AM 55.9 °F 48.0 °F 75% 30.01 in 7.0 mi Calm Calm - N/A   Clear
1:55 AM 55.0 °F 46.0 °F 72% 29.99 in 9.0 mi NE 4.6 mph - N/A   Clear
2:55 AM 54.0 °F 43.0 °F 66% 29.96 in 10.0 mi Calm Calm - N/A   Clear
3:55 AM 52.0 °F 41.0 °F 66% 29.96 in 10.0 mi WSW 4.6 mph - N/A   Clear
4:55 AM 53.1 °F 43.0 °F 69% 29.95 in 10.0 mi Calm Calm - N/A   Clear
5:55 AM 54.0 °F 46.9 °F 77% 29.95 in 6.0 mi North 5.8 mph - N/A   Haze
6:55 AM 54.0 °F 42.1 °F 64% 29.97 in 10.0 mi Calm Calm - N/A   Clear
7:55 AM 60.1 °F 41.0 °F 49% 29.99 in 10.0 mi Calm Calm - N/A   Clear
8:55 AM 64.9 °F 45.0 °F 48% 29.99 in 10.0 mi Calm Calm - N/A   Clear
9:55 AM 70.0 °F 48.0 °F 46% 29.98 in 10.0 mi WSW 4.6 mph - N/A   Clear
10:55 AM 78.1 °F 44.1 °F 30% 29.97 in 10.0 mi West 4.6 mph - N/A   Clear
11:55 AM 78.1 °F 51.1 °F 39% 29.96 in 10.0 mi SSW 13.8 mph - N/A   Clear
12:55 PM 73.9 °F 48.9 °F 41% 29.96 in 10.0 mi SW 11.5 mph - N/A   Clear
1:55 PM 73.9 °F 50.0 °F 43% 29.96 in 9.0 mi WSW 12.7 mph - N/A   Clear
2:55 PM 75.9 °F 48.0 °F 37% 29.95 in 10.0 mi WSW 10.4 mph - N/A   Clear
3:55 PM 79.0 °F 46.9 °F 32% 29.93 in 10.0 mi West 9.2 mph - N/A   Clear
4:55 PM 75.9 °F 48.0 °F 37% 29.92 in 10.0 mi WSW 9.2 mph - N/A   Clear
5:55 PM 73.0 °F 48.9 °F 42% 29.92 in 10.0 mi WSW 4.6 mph - N/A   Clear
6:55 PM 71.1 °F 48.9 °F 45% 29.91 in 10.0 mi Calm Calm - N/A   Clear
7:55 PM 66.9 °F 50.0 °F 54% 29.93 in 10.0 mi WNW 4.6 mph - N/A   Clear
8:55 PM 63.0 °F 52.0 °F 67% 29.95 in 9.0 mi Calm Calm - N/A   Clear
9:55 PM 62.1 °F 50.0 °F 65% 29.96 in 9.0 mi Calm Calm - N/A   Clear
10:55 PM 61.0 °F 50.0 °F 67% 29.96 in 9.0 mi Calm Calm - N/A   Clear
11:55 PM 57.9 °F 48.0 °F 70% 29.96 in 10.0 mi SW 4.6 mph - N/A   Clear